Погода Нижний Тагил

Погода Нижний Тагил : погода сейчас, прогноз погоды и архив. Всё, что Вы хотите узнать о погоде Нижний Тагил!

Хотите узнать прогноз погоды Нижний Тагил? Тогда Вам сюда: Погода Нижний Тагил

Поиск расширенной информации на нашем сайте:

Другие новости

Новости СМИ2

Главная страница сайта

Новости сайта

03.07.2017

Напоминаем, что на нашем специализированном сайте Метеоцентр.Азия вы можете получить высокодетализированные автоматические прогнозы погоды по пунктам России, СНГ и мира в авиационном формате (включающие направление и скорость ветра, видимость, явления погоды, количество и форму облачности, нижнюю и верхнюю границу облачности).

Рекомендуем: Сравнить цены на лазерная гравировка.

Погода Нижний Тагил - сегодня

Время (UTC), дата Ветер
(°,м/с) 
Видим.   Явления Облачность Т
(°С)
Тd
(°С)
f(%) Тe
(°С)
Pmin
(гПа)
dP
(гПа)
Po
(мм)
O2
(г/м3)
Тmin Tmax R s Состояние
почвы
12 16.06.18 330 (СЗ) 10 км  слаб. дождь  10/4 600 м средняя 
[Sc|As op]
+10.8 +4.6 65 +11  1009.5  0.6  734  284           
18 16.06.18 280 (З) 20000 м  {ливн. осадки, дождь}  10/10 600 м кучево-дожд. 
[Cb cap]
+8.2 +6.5 89 +8  1009  -0.8  733  286           
21 16.06.18 320 (СЗ) 4000 м  слаб. ливневой дождь  10/10 600 м кучево-дожд. 
[Cb cap]
+8 +7 93 +7  1008  -1  733  286           
00 17.06.18 300 (СЗ) 4000 м  ливневой дождь  10/10 600 м кучево-дожд. 
[Cb cap]
+8 +7.5 97 +8  1007.2  -0.7  732  285           
03 17.06.18 340 (С) 20000 м  в посл. час дождь{ливн. осадки}  10/0 средняя 
[As op]
+8.9 +8.4 97 +8  1006.8  -0.3  732  284  +7.8      влажная 
06 17.06.18 340 (С) 20000 м  в посл. час морось{ливн. осадки, дождь}  10/10 600 м 
[St]
+10.7 +9.7 94 +11  1007.2  0.6  732  282           
09 17.06.18 360 (С) 20000 м  в посл. час ливневой дождь  8/8 600 м кучево-дожд. 
[Cb cap]
+14.1 +11.1 82 +18  1007.9  733  279           
12 17.06.18 310 (СЗ) 20000 м  {ливн. осадки, дождь}  8/8 600 м кучево-дожд. 
[Cb cap]
+14.7 +10.6 76 +17  1008.2  0.4  733  278           
18 17.06.18 280 (З) 20000 м    10/10 600 м кучево-дожд. 
[Cb cap]
+13 +9.5 79 +14  1007.4  -0.9  733  280           
21 17.06.18 270 (З) 20000 м    9/9 600 м кучево-дожд. 
[Cb cap]
+11.7 +9.7 88 +13  1005.8  -1.7  731  281           
00 18.06.18 310 (СЗ) 20000 м    8/8 600 м кучево-дожд. 
[Cb cap]
+11.6 +9.4 86 +12  1004.7  -1.1  731  281           
03 18.06.18 300 (СЗ) 20000 м  в посл. час ливневой дождь  8/8 600 м кучево-дожд. 
[Cb cap]
+13.8 +11.3 85 +16  1003.6  -0.7  730  278  +10.7        влажная 
18 18.06.18 320 (СЗ) 20000 м  {гроза, ливн. осадки}  4/4 600 м 
[Sc]
+13.8 +12.9 94 +20  1004.3  0.3  730  278           
21 18.06.18 290 (З) 20000 м    8/8 600 м кучево-дожд. 
[Cb cap]
+13 +11.9 93 +18  1003.9  -0.5  730  278           
00 19.06.18 330 (СЗ) 20000 м    9/9 600 м кучево-дожд. 
[Cb cap]
+12.6 +11.4 92 +16  1004.1  0.2  730  279           
03 19.06.18 310 (СЗ) 20000 м    9/9 600 м кучево-дожд. 
[Cb cap]
+13.9 +11.8 87 +18  1004.2  0.2  730  278  +11.8        влажная 
06 19.06.18 330 (СЗ) 20000 м    8/8 600 м кучево-дожд. 
[Cb cap]
+17.7 +11.4 67 +22  1003.7  0.1  730  274           
09 19.06.18 350 (С) 20000 м    8/8 600 м кучево-дожд. 
[Cb cap]
+19.1 +8.5 50 +20  1003.3  -0.3  730  273           
12 19.06.18 300 (СЗ) 20000 м    9/9 600 м кучево-дожд. 
[Cb cap]
+18.2 +11.1 63 +22  1002.5  -0.8  729  273           
18 19.06.18 тихо ()   20000 м  {ливн. осадки}  6/6 600 м кучево-дожд. 
[Cb cap]
+11 +10.5 97 +13  1003.8  -0.3  730  281           
21 19.06.18 тихо ()   20000 м  дымка  6/6 600 м кучево-дожд. 
[Cb cap]
+10 +9.7 98 +11  1003.9  730  282           
00 20.06.18 110 (В) 4000 м  дымка  3/3 600 м кучево-дожд. 
[Cb cap]
+8 +7.8 99 +9  1003.5  -0.6  729  284           
03 20.06.18 200 (Ю) 20000 м    3/3 1000 м 
[Sc]
+16.1 +12.1 77 +22  1001.9  -0.7  729  275  +7.7        влажная 
06 20.06.18 250 (З) 20000 м    8/8 600 м 
[Sc]
+22.8 +7.9 38 +23  999.5  -1.6  728  269           
09 20.06.18 250 (З) 20000 м    9/9 600 м кучево-дожд. 
[Cb cap]
+23.4 +11.3 47 +27  997.9  -1.5  727  268           
Время (UTC), дата Ветер
(°,м/с) 
Видим.   Явления Облачность Т
(°С)
Тd
(°С)
f(%) Тe
(°С)
Pmin
(гПа)
dP
(гПа)
Po
(мм)
O2
(г/м3)
Тmin Tmax R s Состояние
почвы

Для получения пояснительной информации подведите курсор к названию столбца.

ПОГОДА Нижний Тагил - архив

Всё, что Вы хотите узнать о погоде Нижний Тагил - удобно и подробно!

Выберите нужную дату (начиная с 1 января 2015* года) и нажмите кнопку "Найти".
Будут отображены архивные сводки погоды по пункту Нижний Тагил, начиная с указанной даты.


Отображать данные в формате CSV (для использования в таблицах Excel)


Внимание! Наш архив погоды предназначен исключительно для личного некоммерческого использования в познавательных целях. Если Вам необходимы официальные справки о состоянии погоды (для производственных, юридических, коммерческих и т.п. целей), обращайтесь в органы Росгидромета.

*Примечание: данная дата относится к архиву по метеостанциям СССР (Россия, СНГ, Балтия).
Архив по метеостанциям Зарубежной Европы и Азии (кроме Китая) хранится 10 дней, по другим регионам земного шара (Китай, Африка, Америка, Австралия, Океания) - 1 день.

Нижний Тагил - район местоположения метеостанции


Название, широта, долгота, высота метеостанции:
Нижний Тагил 57.9°ш. 60.1°д. 260 м над ур. моря [Российская Федерация]

Дополнительная информация

В oтличие oт бoльшинства пoгoдных сайтoв мы публикуем пoдрoбную метеoинфoрмацию в детальнoм прoфессиoнальнoм фoрмате.

Характеристики температуры и влажнoсти вoздуха измеряются на высoте 2 м в тени вдали oт зданий и деревьев.
Скoрoсть ветра измеряется на высoте 10 м (на урoвне рoста челoвека скoрoсть ветра ниже в 1.5-2 раза). Если метеoстанция нахoдится в гoрoде или в лесу, тo скoрoсть ветра занижена на 2-4 м/с пo сравнению с oткрытым местoм. Скoрoсть ветра над акватoриями крупных рек и oзёр, а также на вершинах хoлмoв на 2-5 м/с выше, чем в oбычных услoвиях.
Атмoсфернoе давление в разных тoчках местнoсти мoжет значительнo oтличаться oт давления на метеoстанции, в зависимoсти oт услoвий рельефа (при пoдъёме на 10 м давление пoнижается примернo на 1 мм рт.ст.).